Skip Page Navigation
NASA JPL Caltech
NASA Logo - Jet Propulsion Laboratory + View the NASA Portal
+ Center for Near-Earth Object Studies
JPL Home Earth Solar System Stars & Galaxies Technology
JPL Solar System Dynamics
BODIES ORBITS EPHEMERIDES TOOLS PHYSICAL DATA DISCOVERY FAQ SITE MAP
JPL Small-Body Database Browser
Search: [ help ]  
187820 (1999 TP253)
Classification: Main-belt Asteroid          SPK-ID: 2187820
Ephemeris | Orbit Diagram | Orbital Elements | Mission Design | Physical Parameters | Discovery Circumstances | Close-Approach Data ]

[ show orbit diagram ]
Orbital Elements at Epoch 2459200.5 (2020-Dec-17.0) TDB
Reference: JPL 16 (heliocentric ecliptic J2000)
 Element Value Uncertainty (1-sigma)   Units 
e .03291835795456734 7.8059e-08  
a 3.035777691123386 3.3047e-08 au
q 2.935844874416497 2.4735e-07 au
i 14.40967262722201 9.0286e-06 deg
node 225.8591761552983 2.8723e-05 deg
peri 100.6309321996886 0.00018045 deg
M 43.63122180728986 0.00017232 deg
tp 2458966.347796774956
(2020-Apr-26.84779677)
0.00092709 TDB
period 1931.983329124468
5.29
3.1547e-05
8.637e-08
d
yr
n .1863370115947864 3.0426e-09 deg/d
Q 3.135710507830276 3.4134e-08 au
  Orbit Determination Parameters
   # obs. used (total)      466  
   data-arc span      7749 days (21.22 yr)  
   first obs. used      1999-10-03  
   last obs. used      2020-12-20  
   planetary ephem.      DE441  
   SB-pert. ephem.      SB441-N16  
   condition code      0  
   norm. resid. RMS      .49455  
   source      ORB  
   producer      Otto Matic  
   solution date      2021-Apr-13 21:56:57  

Additional Information
 Earth MOID = 1.96823 au 
 Jupiter MOID = 1.97716 au 
 T_jup = 3.193 
[ hide covariance matrix ]
Orbital Elements at Epoch 2457890.5 (2017-May-17.0) TDB
Reference: JPL 16 (heliocentric ecliptic J2000)
 Element Value Uncertainty (1-sigma)   Units 
e .0361671384041285 8.0905e-08  
q 2.925721908462665 2.5834e-07 au
tp 2457043.499552407530
(2015-Jan-20.99955241)
0.00085093 TDB
node 225.9459771338279 2.8668e-05 deg
peri 102.5645242605347 0.0001628 deg
i 14.42726939679475 9.0474e-06 deg
  Orbit Determination Parameters
   # obs. used (total)      466  
   data-arc span      7749 days (21.22 yr)  
   first obs. used      1999-10-03  
   last obs. used      2020-12-20  
   planetary ephem.      DE441  
   SB-pert. ephem.      SB441-N16  
   condition code      0  
   norm. resid. RMS      .49455  
   source      ORB  
   producer      Otto Matic  
   solution date      2021-Apr-13 21:56:57  

Additional Information
 Jupiter MOID = 1.97716 au 
 T_jup = 3.193 
Orbit Covariance (6×6)
  e q tp node peri i
e 6.545569413882319E-15 -2.075261871998289E-14 5.017893351250599E-11 4.143858940677854E-14 9.390390403544442E-12 -4.724370173175941E-14
q -2.075261871998289E-14 6.673948760593921E-14 -1.705346051002106E-10 -1.332617788277263E-13 -3.190054816811269E-11 1.538979087769142E-13
tp 5.017893351250599E-11 -1.705346051002106E-10 7.240853629415982E-7 3.354843523305839E-10 1.364569055412292E-7 -4.385664848406801E-10
node 4.143858940677854E-14 -1.332617788277263E-13 3.354843523305839E-10 8.218311323108079E-10 -7.321578433738902E-10 -1.894779388045611E-10
peri 9.390390403544442E-12 -3.190054816811269E-11 1.364569055412292E-7 -7.321578433738902E-10 2.650517817117357E-8 1.009057599159521E-10
i -4.724370173175941E-14 1.538979087769142E-13 -4.385664848406801E-10 -1.894779388045611E-10 1.009057599159521E-10 8.185458469629945E-11

Ephemeris | Orbit Diagram | Orbital Elements | Mission Design | Physical Parameters | Discovery Circumstances | Close-Approach Data ]

Physical Parameter Table
Parameter Symbol Value Units Sigma Reference Notes
absolute magnitude H 15.43   n/a MPCxxxxx  
rotation period rot_per 11.237 h n/a LCDB (Rev. 2020-October); Warner et al., 2009 Result based on less than full coverage, so that the period may be wrong by 30 percent or so.
Published Reference List:
[Waszczak, A.; Chang, C.-K.; Ofeck, E.O.; Laher, F.; et al. (2015) Astron. J. 150, A75.]

187820 (1999 TP253)          Discovered 1999-Oct-10 by LINEAR at Socorro
Reference: 20080618/Numbers.arcLast Updated: 2008-06-20

[ show close-approach data ]
Alternate Designations
 1999 TP253 = 2004 RU211 
Ephemeris | Orbit Diagram | Orbital Elements | Mission Design | Physical Parameters | Discovery Circumstances | Close-Approach Data ]
ABOUT SSD CREDITS/AWARDS PRIVACY/COPYRIGHT GLOSSARY LINKS
FirstGov 2021-May-14 08:38 UT
(server date/time)  
NASA Home Page
Site Manager:   Ryan S. Park
Webmaster  Alan B. Chamberlin